Theta_e
317 316 316 317 317 319 327 326 327 333 329 330 332 326 326 325 323 322 320 319 320 320 321 322 323 323 324 325 326 324 323 327 328 329 328 325 325 321 318 319 320 321 320 320 320 320 322 324 326 328 330 330 329 329 328 328 327 326 326 327 328 330 330 329 329 330 330 330 330 329 329 329 329 329 329 329 329 328 329 328 328 328 328 327 327 327 328 328 328 328 328 326 326 325 325 326 326
318 318 317 317 319 324 331 328 329 333 327 328 330 325 326 324 323 322 321 321 321 320 321 322 322 324 322 323 322 322 323 323 322 323 322 322 324 320 318 321 321 322 320 318 318 318 317 317 319 322 324 324 324 323 323 322 320 319 320 320 322 324 327 328 329 330 330 330 329 329 329 329 329 329 329 328 328 327 326 326 326 325 324 324 324 323 324 325 326 326 325 324 323 324 325 325 324
318 319 319 320 323 327 331 329 332 331 324 326 330 330 325 324 325 322 321 321 321 320 321 321 321 322 321 322 321 322 323 321 319 319 319 321 322 318 318 321 322 322 319 318 318 316 315 314 315 317 317 317 317 316 316 315 314 314 314 314 315 316 318 320 322 324 324 324 324 324 324 325 325 325 325 324 323 321 320 319 318 317 316 316 316 316 316 317 318 318 318 317 317 318 320 322 322
318 320 321 325 328 329 331 331 335 329 324 327 327 331 325 324 326 321 320 320 320 319 319 320 320 320 320 322 321 322 322 320 320 319 319 320 319 316 316 319 322 320 316 317 316 315 314 313 314 315 314 314 314 313 313 313 312 312 312 312 312 312 313 313 313 314 315 315 315 315 316 316 316 317 316 316 315 314 313 312 312 311 311 311 311 311 312 312 312 312 312 312 312 312 313 314 315
319 323 325 328 332 331 331 332 335 329 328 330 324 326 325 324 324 320 320 319 320 319 318 319 320 320 319 321 320 322 323 321 320 319 319 318 317 315 315 317 318 316 314 314 315 314 313 313 313 313 313 313 313 312 312 312 312 312 311 311 311 311 311 311 311 311 311 311 311 311 311 311 311 311 311 310 310 310 310 310 309 309 309 309 309 309 310 310 310 310 311 311 311 311 311 311 311
319 324 327 328 329 327 330 332 334 331 328 330 325 324 323 322 321 318 318 318 319 318 319 318 320 320 318 320 319 321 322 321 321 319 318 318 317 315 314 315 314 314 314 313 313 313 313 313 312 312 312 312 311 311 311 310 310 310 310 310 310 310 310 310 310 310 310 309 309 309 309 309 309 308 308 308 307 307 307 306 306 306 306 306 306 306 306 306 307 307 307 308 308 309 309 309 310
320 323 325 326 326 324 330 331 332 332 327 325 325 324 322 320 318 318 319 318 319 318 319 318 319 320 319 319 319 321 321 321 320 318 318 318 317 315 314 314 314 314 313 313 313 312 311 311 310 310 310 309 309 309 309 309 308 308 308 308 308 308 308 308 308 308 308 307 307 306 306 306 305 305 305 304 304 304 304 304 303 303 304 303 303 303 303 304 304 304 304 304 304 304 305 305 306
323 325 323 327 331 325 328 328 326 327 325 323 322 322 322 319 318 320 321 319 319 318 318 319 319 319 319 318 318 319 320 320 320 318 318 317 317 316 315 313 314 314 313 313 312 310 309 309 309 308 308 308 308 308 308 308 308 308 307 308 307 307 307 307 306 305 305 304 304 303 303 303 303 303 303 303 303 303 303 303 303 303 303 303 303 303 303 303 303 303 303 303 303 303 303 303 304
324 325 323 328 332 326 328 328 325 324 323 322 320 321 321 320 319 320 321 319 318 317 318 319 318 319 319 317 317 318 318 318 318 318 317 317 317 316 315 314 314 314 313 312 310 309 308 308 308 308 308 308 307 307 307 307 307 307 307 307 307 307 306 305 304 303 303 303 303 303 303 303 303 303 303 303 303 303 303 303 303 303 303 303 303 303 303 302 303 303 303 303 303 303 303 303 303
323 323 322 327 328 326 328 326 326 329 324 321 320 320 321 321 320 320 320 319 318 317 317 318 318 317 318 317 317 318 318 318 317 317 317 317 317 316 315 314 314 313 312 311 309 308 308 308 308 308 308 307 307 307 307 307 307 307 307 307 306 305 304 303 303 303 302 302 302 302 303 302 303 303 303 303 303 303 303 303 303 303 303 303 303 302 302 302 302 302 302 302 302 302 302 303 303
323 322 320 325 327 326 328 326 326 330 324 320 319 319 321 321 320 319 318 319 319 317 318 318 318 317 317 317 317 318 318 318 317 316 316 316 316 316 315 315 314 313 312 310 309 309 308 308 308 308 307 307 307 307 307 307 307 307 307 306 305 304 303 303 302 302 302 302 302 302 302 302 302 302 302 303 303 303 303 303 303 303 303 303 303 302 302 302 302 302 302 302 302 302 302 302 302
324 325 324 325 328 327 328 327 325 328 327 323 320 319 320 320 320 319 318 319 318 317 318 318 318 317 317 317 317 318 317 318 317 316 315 316 316 316 316 315 314 313 312 310 310 309 308 309 308 308 308 308 308 308 307 307 307 306 306 304 303 303 302 302 302 302 302 302 302 302 302 303 303 303 303 303 303 303 303 303 303 303 303 302 302 302 302 302 302 302 302 302 302 302 302 302 302
323 325 325 327 332 329 325 326 327 329 329 324 319 319 320 320 319 319 318 318 317 318 319 318 317 317 317 317 317 317 317 318 317 316 315 315 315 315 315 315 314 314 312 311 310 309 309 309 309 309 308 308 308 307 307 307 307 305 304 303 302 302 302 302 302 302 302 302 302 303 303 303 304 304 304 304 304 303 303 303 303 303 303 302 302 302 302 302 302 302 302 302 302 301 301 301 301
321 322 323 328 332 328 324 326 327 328 329 324 318 319 319 319 319 319 319 319 318 318 319 318 317 317 317 317 316 317 317 317 317 316 315 315 315 315 315 315 314 314 313 312 310 309 309 309 309 309 308 308 308 307 307 307 306 305 303 302 302 302 302 302 302 302 302 303 303 304 304 304 304 305 304 304 304 304 304 304 304 303 303 303 302 302 302 302 302 301 301 301 301 301 301 301 301
320 321 322 326 329 327 325 327 325 324 328 326 318 319 319 318 319 319 319 319 318 318 319 318 317 317 317 317 317 317 317 317 317 316 315 315 315 314 314 314 314 313 313 312 311 310 309 309 310 309 308 308 308 307 307 307 306 304 303 302 302 302 302 302 302 302 303 303 304 304 305 305 305 305 305 305 305 305 305 305 305 305 305 304 304 303 303 302 302 302 302 301 301 301 301 301 301
319 321 323 324 326 326 326 328 326 324 326 323 318 318 318 318 319 319 319 318 318 318 318 318 317 318 317 316 317 316 317 317 317 316 316 315 314 314 314 314 313 313 313 312 311 310 309 309 309 309 308 307 307 307 307 306 305 304 303 302 302 302 302 302 302 303 303 304 304 305 304 305 305 305 305 305 305 305 305 306 306 306 305 305 305 304 303 302 302 301 301 301 301 301 301 301 301
319 321 324 325 327 325 328 328 323 324 325 319 316 317 318 318 318 318 318 317 318 317 318 318 317 317 316 316 316 317 317 317 316 315 315 315 314 314 314 314 314 313 313 312 312 311 310 309 309 309 308 307 307 307 306 306 305 304 302 302 302 302 302 302 302 303 304 304 305 304 304 305 305 305 305 305 305 305 305 305 305 305 305 305 305 305 304 303 302 302 301 301 301 301 301 301 301
320 325 324 323 327 326 328 326 319 321 322 318 316 317 317 318 317 317 317 317 317 316 317 317 317 317 316 316 316 316 317 316 316 316 315 315 314 314 314 314 314 314 313 313 313 312 311 310 309 309 308 308 307 307 306 306 305 304 302 302 301 301 302 302 303 303 304 304 304 304 304 305 305 305 305 305 305 305 305 305 305 305 305 305 306 305 305 304 303 302 301 301 301 301 301 301 301
321 327 325 326 332 326 322 320 317 318 318 317 316 317 317 317 317 316 317 317 316 316 316 316 316 316 316 316 316 316 316 316 316 315 315 315 314 315 314 314 314 314 314 314 313 313 312 311 310 309 309 308 307 307 307 306 306 304 303 302 301 301 302 302 303 303 303 304 304 304 305 304 304 304 304 304 304 304 304 304 304 305 305 305 305 306 305 305 304 303 302 301 301 301 300 301 301
320 323 327 332 330 322 319 318 318 318 318 317 316 317 316 316 317 316 316 316 316 316 316 314 315 316 316 316 315 315 315 315 315 315 315 315 315 314 314 314 314 314 314 314 314 313 313 312 311 310 309 309 308 308 307 307 306 305 304 302 302 301 302 302 302 303 303 304 304 304 304 304 304 304 304 304 304 304 304 304 304 304 304 305 305 305 305 305 304 303 302 301 301 301 301 301 300
320 321 327 329 321 318 320 318 318 318 318 317 316 316 316 316 317 315 315 316 316 315 315 315 316 316 316 315 315 315 315 315 315 314 315 314 314 314 314 314 314 314 314 314 313 313 313 313 312 311 310 309 308 308 308 307 306 306 304 303 302 301 302 302 302 303 303 303 304 304 304 304 304 304 304 303 303 303 303 304 304 304 304 304 305 305 305 305 305 304 303 302 301 301 300 300 300
320 319 320 320 317 319 320 317 318 317 317 317 315 316 316 316 316 315 315 316 317 316 316 317 316 317 316 316 316 315 315 315 315 315 315 315 314 314 314 314 313 313 313 313 313 313 313 313 312 311 310 309 308 308 308 307 306 306 305 304 303 302 302 302 302 303 303 303 304 304 304 304 304 304 303 303 303 303 303 303 303 304 304 304 304 305 305 305 305 304 304 303 301 301 300 300 300
320 320 317 317 318 318 318 318 317 317 316 316 315 315 315 315 316 316 315 315 317 316 317 317 316 316 316 316 316 315 315 315 315 315 315 315 315 315 315 315 314 313 313 313 313 313 313 313 313 312 311 309 309 308 308 307 307 306 305 305 303 302 302 302 302 302 303 303 303 303 304 303 304 304 303 303 303 303 303 303 303 303 304 304 304 304 304 304 304 304 304 303 302 301 300 300 299
320 321 317 317 318 317 318 317 317 317 316 316 315 315 314 315 316 316 315 316 316 317 316 317 317 316 316 316 316 316 316 316 316 316 316 316 316 315 315 315 314 314 313 313 313 313 313 313 312 312 312 310 308 308 308 308 307 307 306 305 304 303 302 301 301 302 302 302 303 303 303 303 304 304 303 303 303 303 303 303 303 303 303 303 303 303 303 304 304 304 303 303 302 301 300 300 299
318 320 317 316 317 317 317 317 316 316 316 316 315 314 314 315 315 314 315 316 316 316 316 316 316 316 316 316 316 316 316 316 316 316 316 316 316 315 314 314 314 313 313 313 313 313 312 312 312 312 312 311 309 308 308 308 307 307 306 306 305 303 302 301 301 301 302 302 302 303 303 303 303 303 303 303 303 303 303 303 302 303 303 303 303 303 303 303 303 303 303 303 302 301 300 300 299
317 317 316 315 316 317 317 317 316 316 316 316 315 314 314 314 314 314 315 317 316 316 316 316 316 316 316 315 315 316 315 316 316 316 316 316 315 315 314 314 313 314 314 313 313 312 312 312 312 312 312 311 310 308 308 308 307 307 307 306 305 304 302 301 301 301 301 301 302 302 303 303 303 303 303 303 303 303 303 302 302 302 302 302 302 302 302 303 303 303 302 302 302 301 300 300 300
317 315 316 314 315 316 316 316 316 316 315 315 315 316 314 313 314 315 316 316 316 316 316 316 315 315 316 315 315 315 315 316 315 316 315 315 315 315 315 314 314 314 313 313 313 313 312 312 312 312 312 311 310 309 308 308 307 307 307 306 305 304 303 301 301 301 301 301 301 302 302 302 302 303 303 303 303 303 303 302 302 302 301 302 302 302 302 302 302 302 302 302 301 301 300 300 299
316 315 316 315 315 315 316 316 315 315 315 315 315 315 313 313 314 315 316 316 315 316 316 316 316 316 316 315 315 315 315 315 315 315 315 315 315 315 315 315 314 314 313 314 313 313 312 312 312 311 311 311 310 309 308 307 307 307 306 306 305 304 303 302 301 301 301 301 301 301 302 302 302 302 302 302 302 303 303 302 302 301 301 301 301 301 302 302 302 302 301 301 301 300 299 299 298
316 315 317 317 315 316 316 315 315 314 315 315 314 315 315 314 314 315 316 316 315 315 315 316 316 316 316 316 315 315 315 316 315 315 315 316 316 315 315 315 315 314 314 314 313 313 312 312 312 311 311 310 310 310 308 308 307 307 306 306 305 305 303 302 301 301 300 301 301 301 301 301 302 302 302 302 302 302 302 302 301 301 301 301 301 301 301 301 301 301 301 300 300 299 299 298 298
316 315 316 317 316 318 316 315 316 314 314 315 314 316 319 317 314 315 316 317 315 314 315 315 315 316 316 316 316 316 316 315 315 315 316 316 316 315 315 315 314 313 313 312 312 313 312 312 311 310 310 310 310 309 308 308 307 307 306 306 305 304 304 303 302 301 300 300 300 300 301 301 301 301 301 301 301 302 302 301 301 301 301 301 301 301 301 301 301 301 301 300 299 299 298 297 298
316 315 316 317 317 320 318 314 315 315 314 314 315 316 318 317 315 315 316 316 315 313 314 315 315 315 316 316 316 316 316 315 315 315 315 315 315 315 315 314 314 313 312 312 312 312 312 311 311 310 310 310 309 309 308 308 307 307 306 306 305 305 304 303 303 302 300 300 300 300 300 301 301 301 301 301 301 301 301 301 301 301 300 300 300 300 300 301 301 300 300 300 299 298 297 297 297
317 316 320 321 319 319 318 314 314 316 315 312 315 317 316 316 316 315 315 316 315 313 314 315 315 315 315 315 316 316 316 316 315 315 315 315 315 315 314 314 314 313 313 312 312 311 311 311 311 310 310 309 309 308 308 308 307 306 306 306 305 305 305 304 304 303 301 300 300 300 300 300 300 300 301 301 301 301 301 301 300 300 300 300 300 300 300 300 300 300 299 299 298 297 297 296 296
319 317 319 321 320 317 318 318 314 314 315 312 314 318 317 317 316 315 316 315 314 313 314 316 316 316 316 316 316 316 316 316 316 316 315 314 314 314 314 314 314 313 313 312 312 311 311 310 310 310 310 309 309 308 308 307 307 306 306 305 305 305 305 304 304 303 302 300 300 300 300 300 300 300 300 300 300 300 300 300 300 300 300 300 300 299 299 299 300 299 299 298 297 297 296 296 296
321 319 318 319 319 317 318 322 315 311 315 315 314 315 316 318 315 314 315 315 315 313 314 316 317 316 316 316 316 316 316 316 316 316 315 315 314 314 314 314 313 313 312 312 311 311 311 310 310 310 309 309 308 308 307 307 306 306 305 305 304 304 304 304 304 303 302 301 300 300 300 300 300 300 300 300 300 300 300 300 300 300 299 299 299 299 299 299 299 299 298 297 296 296 295 295 295
319 321 321 319 319 317 317 320 316 313 316 315 315 314 314 315 313 313 314 314 314 313 315 316 317 317 317 316 316 316 316 315 316 316 315 315 314 314 314 313 313 313 312 312 311 310 310 310 309 309 309 308 308 307 306 306 305 305 304 304 303 303 303 303 303 303 302 301 300 299 299 299 299 299 299 299 300 300 300 300 300 299 299 299 299 299 299 299 299 298 298 297 295 294 294 294 294
318 319 319 319 318 316 316 317 317 316 316 316 315 314 314 314 313 313 313 314 313 312 314 315 315 316 316 316 315 315 315 315 317 316 316 315 315 314 314 313 313 313 312 312 311 310 309 309 308 308 308 308 307 306 305 305 304 304 304 303 303 303 303 303 303 303 302 302 300 299 299 299 299 299 299 299 299 299 299 299 299 299 299 299 299 299 298 298 298 298 297 296 295 294 293 293 293
316 316 317 317 316 316 315 317 318 315 315 317 317 315 314 314 314 313 312 313 312 311 311 312 314 315 315 315 315 315 315 316 317 316 315 315 315 314 314 313 313 312 312 311 311 310 309 309 309 308 308 308 307 307 306 306 305 305 304 304 304 304 304 304 304 303 302 302 301 299 299 299 298 298 298 299 299 299 299 299 299 299 299 298 298 298 298 298 298 297 297 296 295 294 293 293 293
315 315 316 316 316 317 316 317 318 315 315 317 316 316 315 314 314 313 312 313 313 312 311 312 312 313 314 314 315 315 316 316 316 316 315 315 315 314 314 313 313 312 311 311 310 310 309 309 309 309 308 308 308 307 307 307 307 307 306 306 306 306 305 305 305 304 303 302 301 300 299 298 298 298 298 298 298 298 299 299 298 298 298 298 298 298 298 298 297 297 296 295 294 294 293 292 292
315 316 316 317 317 317 316 317 319 315 315 319 319 316 314 314 314 313 312 313 313 314 314 314 314 314 314 315 315 315 316 316 315 315 315 315 315 314 314 313 312 312 312 311 311 310 309 309 309 309 308 308 308 307 307 307 307 306 306 306 306 305 305 304 304 303 302 301 301 299 298 298 298 298 298 298 298 298 298 298 298 298 298 298 298 298 298 297 297 296 296 295 294 293 293 292 292
316 316 317 317 317 317 316 317 319 316 316 321 320 316 314 314 314 314 313 312 313 314 315 315 315 315 315 315 316 316 315 315 315 315 315 315 315 314 314 313 312 312 311 311 310 310 309 309 309 309 308 308 308 307 307 307 306 305 304 304 304 303 303 303 302 301 301 300 299 299 298 298 298 298 298 298 297 298 298 298 298 298 298 298 298 297 297 297 297 296 295 294 293 293 293 292 292
316 317 317 317 317 318 316 317 319 318 318 318 317 316 315 315 315 315 315 314 314 314 314 315 315 315 316 315 316 316 316 315 315 315 315 315 315 315 314 313 312 312 311 311 310 310 309 309 309 308 308 308 308 307 307 306 305 304 303 303 302 301 301 300 300 300 300 299 299 299 299 298 297 297 297 297 297 297 297 297 298 297 297 297 297 297 297 297 296 296 295 294 293 292 292 292 292
316 318 319 318 318 318 317 317 317 319 322 319 316 319 319 319 319 316 316 316 315 314 313 314 314 315 316 315 316 317 317 316 315 315 315 315 315 315 314 313 312 312 311 311 310 310 309 309 309 308 308 308 307 307 306 305 305 305 304 304 303 303 302 302 302 302 302 301 301 301 299 298 297 297 297 297 297 297 297 297 297 297 297 297 297 297 297 297 296 295 295 294 293 292 292 292 291
316 321 324 320 319 319 319 319 318 322 326 320 317 321 321 320 321 318 317 318 318 316 316 314 312 314 316 317 317 317 317 315 315 315 315 316 315 315 314 313 313 313 312 311 310 310 309 309 308 308 308 308 307 307 306 306 305 305 305 305 305 305 305 306 305 304 303 302 301 300 300 299 297 297 297 297 297 297 297 297 297 297 297 297 297 297 296 296 296 295 294 294 292 292 291 291 291
317 324 327 323 321 321 321 322 323 324 324 319 318 321 320 319 319 319 319 319 319 317 317 316 313 313 316 317 317 317 317 315 314 315 315 316 316 315 315 314 314 313 312 311 310 309 309 308 308 308 308 308 307 307 307 307 306 306 306 306 306 306 305 305 305 303 303 301 301 300 299 298 297 297 296 296 296 296 296 296 297 297 297 297 296 296 296 296 296 295 294 293 292 291 291 291 291
319 322 325 324 322 323 323 322 323 324 321 319 320 319 319 319 317 317 317 315 317 316 316 316 313 313 316 317 317 316 316 315 314 315 315 316 316 315 315 315 314 313 311 311 310 310 309 308 308 308 308 308 307 307 307 306 306 307 307 306 307 306 305 304 303 302 301 301 300 300 298 297 297 297 296 296 296 296 296 296 296 296 296 296 296 296 296 296 295 295 294 293 292 291 291 291 290
318 319 322 325 325 323 320 319 320 322 320 319 320 319 318 318 315 317 316 315 317 315 315 316 313 313 316 316 316 316 316 315 314 314 315 315 315 316 315 314 313 312 311 311 310 309 309 308 308 308 308 308 308 308 307 307 306 306 307 308 308 307 305 304 302 301 300 300 299 299 298 298 297 296 296 296 296 296 296 296 296 296 296 296 296 296 296 295 295 294 293 292 291 291 291 290 290
315 317 320 325 328 325 323 323 321 320 318 318 321 320 317 318 318 318 318 317 317 316 315 315 313 312 315 316 316 317 317 316 315 314 315 316 315 315 315 314 313 312 311 310 310 309 309 309 308 308 308 308 308 308 308 307 306 307 308 309 308 307 306 304 303 302 301 300 299 298 298 297 297 296 296 296 296 295 295 295 295 296 296 296 296 296 295 295 294 294 293 292 291 291 291 290 290
315 320 322 324 328 327 324 322 319 318 318 318 321 320 317 317 318 317 316 316 316 316 316 317 316 313 313 315 317 316 317 316 315 315 315 316 315 315 314 314 313 312 311 311 310 310 309 309 309 308 308 308 308 309 309 308 307 307 309 309 308 307 306 305 304 303 302 301 300 299 298 297 296 296 295 295 295 295 295 295 295 295 295 296 295 295 295 295 294 293 292 291 291 291 290 290 290
316 321 321 320 323 322 320 321 320 319 320 319 318 318 317 316 316 316 316 317 317 316 315 315 317 314 312 315 317 316 317 316 315 315 316 316 315 315 314 314 313 313 312 312 311 310 310 309 309 309 309 310 310 310 310 309 308 308 309 309 309 307 306 306 305 303 302 302 301 299 298 297 297 296 296 295 295 295 295 295 295 295 295 295 295 295 294 294 294 293 292 291 291 290 290 290 290
315 318 319 319 320 319 320 324 323 318 320 321 316 316 318 318 319 319 317 317 317 315 313 313 314 314 314 316 317 316 316 316 315 315 316 316 316 315 314 314 314 314 314 313 312 312 311 310 310 310 311 310 310 311 310 310 309 309 309 309 309 308 307 307 306 304 303 302 300 299 299 298 297 297 296 296 296 295 295 295 295 295 295 295 294 294 294 294 293 292 291 291 290 290 290 290 290
314 317 319 318 322 324 322 324 322 317 324 325 316 317 322 319 320 323 318 315 313 311 313 314 314 316 316 316 317 316 315 315 315 315 315 316 316 314 314 314 314 315 315 314 314 313 313 312 313 313 312 311 311 311 311 310 310 309 309 308 308 308 307 306 306 304 303 302 301 300 299 298 297 297 296 296 295 295 295 295 294 294 294 294 294 294 293 293 292 291 291 291 290 290 290 290 289
315 318 319 316 320 323 318 320 320 316 321 321 316 320 324 318 316 319 317 315 314 311 312 312 312 314 314 313 315 315 314 316 315 315 316 316 315 314 313 313 314 315 315 315 315 315 315 315 315 314 314 313 312 312 311 311 310 310 309 308 308 307 307 306 305 304 304 303 301 300 299 298 297 296 295 295 295 294 294 294 294 294 294 294 294 293 293 292 291 291 291 290 290 290 289 290 289
317 317 317 316 318 320 317 321 322 316 316 318 317 319 320 317 316 316 315 316 315 313 312 311 310 312 312 312 314 314 315 316 316 316 316 316 315 314 313 313 314 315 315 315 315 315 315 315 315 315 314 313 312 312 312 311 310 310 310 309 308 307 307 307 306 305 304 302 301 299 298 297 296 295 295 294 294 294 294 294 294 294 293 293 293 293 292 292 291 291 291 290 290 289 289 289 289
318 319 318 316 317 319 320 322 323 319 318 318 317 316 315 315 316 317 316 316 315 314 314 313 311 311 310 311 313 314 316 316 316 316 316 316 315 313 313 313 314 314 315 314 314 314 314 314 314 314 314 313 313 313 312 311 310 310 310 310 308 307 307 307 306 304 303 302 301 299 298 297 296 295 294 294 294 293 293 293 293 293 293 293 293 293 292 292 291 291 290 290 289 289 289 289 289
315 317 316 317 320 322 321 320 320 319 318 317 316 315 314 313 314 314 315 316 317 316 314 313 313 311 310 311 312 314 316 317 317 316 316 315 314 313 313 313 313 314 314 314 315 314 313 313 313 313 313 313 312 312 312 311 310 310 310 310 309 307 306 306 305 304 303 302 301 299 298 297 296 294 294 293 293 293 293 293 293 293 293 293 293 293 292 292 291 291 290 290 289 289 289 289 288
312 314 315 315 317 321 322 319 319 318 317 316 316 315 314 315 316 314 314 316 317 315 314 314 313 311 311 312 312 313 314 315 316 315 316 315 314 314 314 313 313 313 313 314 314 313 312 313 313 313 312 312 311 311 311 311 310 310 310 309 309 307 306 305 305 304 303 302 301 299 298 297 296 295 294 293 293 292 293 293 292 293 293 293 293 292 292 291 291 290 290 289 289 289 289 288 288
315 316 317 315 314 318 319 316 316 317 316 316 316 316 315 317 319 317 317 318 316 315 315 315 313 311 311 312 313 314 314 314 315 315 315 315 314 315 314 313 312 312 313 313 313 312 312 312 312 312 312 312 311 311 311 310 309 309 309 309 309 308 306 304 304 303 303 302 301 299 298 297 295 295 294 293 292 292 292 292 292 292 292 292 292 292 292 291 290 290 289 289 289 288 288 288 288
317 316 317 316 315 316 316 315 316 317 315 315 316 315 315 316 319 320 320 322 321 317 316 315 312 310 311 313 314 315 315 315 315 314 314 315 314 314 313 313 312 312 312 312 312 312 311 311 311 311 312 312 311 311 311 310 309 308 308 308 307 306 305 303 303 303 303 302 301 300 298 296 295 294 294 293 293 292 292 292 292 292 292 292 292 291 291 290 290 289 289 289 288 288 288 288 287
Wind_Speed
4 5 4 3 3 2 0 2 2 2 2 2 4 1 4 4 1 2 2 1 2 3 6 6 5 8 7 6 9 10 6 3 4 3 4 4 10 22 23 22 21 21 22 22 20 19 17 15 14 12 11 11 10 9 8 8 7 6 5 4 4 4 4 4 4 4 4 4 4 4 5 5 6 6 7 7 7 7 7 7 7 7 7 7 6 7 7 8 8 9 10 10 10 10 10 10 10
4 4 5 6 4 2 1 2 1 3 3 3 5 3 5 2 3 1 3 2 3 5 7 7 8 11 10 10 11 7 5 4 2 3 6 8 17 24 22 21 20 20 21 21 19 18 16 15 14 14 12 11 10 9 9 9 8 7 7 6 6 7 6 6 6 6 6 6 6 6 7 7 7 8 8 8 9 9 9 9 9 9 9 9 9 9 9 9 10 11 12 13 12 12 12 12 12
4 5 6 6 5 1 2 2 1 0 1 3 5 4 2 3 2 1 2 4 8 9 8 6 7 7 6 8 6 1 1 4 4 4 8 13 19 24 22 20 20 20 19 18 17 15 14 14 15 14 12 11 11 10 9 8 8 8 8 7 8 8 8 8 8 8 8 8 8 8 8 8 8 9 9 9 10 10 10 10 10 10 10 10 10 10 10 10 11 11 13 13 13 13 13 13 14
5 5 6 5 5 2 2 2 2 3 2 4 3 5 1 5 5 3 7 8 8 8 6 5 4 2 2 4 5 2 4 7 7 5 8 14 16 21 23 21 21 20 17 16 15 14 14 14 13 13 12 12 11 9 9 8 8 8 8 8 8 7 7 7 7 7 7 7 7 7 7 8 8 8 8 8 8 8 8 8 7 8 8 8 8 8 9 9 10 10 11 12 13 13 14 14 15
6 5 5 6 4 1 2 1 1 3 4 4 2 5 3 6 7 5 7 9 7 6 7 7 3 1 2 2 4 2 6 7 7 8 9 14 17 20 22 21 21 20 18 16 15 15 14 13 13 13 13 12 11 10 10 9 9 9 9 8 7 6 6 5 5 4 4 4 4 4 4 5 5 5 5 4 4 4 5 5 5 5 5 6 7 7 7 8 8 9 9 10 11 12 13 13 14
7 6 7 5 2 1 2 1 2 3 6 5 3 4 5 7 9 9 8 9 7 7 8 9 5 4 2 2 5 5 8 6 5 9 9 12 17 21 21 22 21 19 18 16 15 14 14 14 14 14 13 12 12 11 11 10 10 9 8 7 7 6 5 5 5 4 3 3 2 2 2 2 2 3 3 3 3 3 4 4 4 4 5 5 6 6 7 7 7 8 8 9 9 10 11 12 12
6 7 5 3 1 1 3 3 4 5 6 5 5 4 6 8 13 13 9 6 4 6 8 8 9 7 2 3 5 7 9 7 5 7 7 10 15 19 21 21 21 19 16 15 15 14 14 15 15 14 13 12 12 11 11 10 9 8 8 7 7 6 6 5 5 4 3 2 2 1 1 2 2 2 2 2 2 2 3 3 3 3 3 3 4 5 5 6 6 6 7 7 8 8 9 10 11
6 5 3 3 1 1 2 4 5 4 5 4 4 6 9 14 17 12 7 5 3 6 8 8 11 6 2 6 5 8 11 9 9 6 7 11 13 17 20 21 19 17 16 16 16 15 15 16 15 14 13 13 12 12 11 10 9 8 7 7 6 5 5 4 3 3 2 2 1 1 1 1 1 1 1 1 1 1 2 2 2 2 2 3 3 3 4 5 5 6 6 6 6 7 7 8 8
6 3 2 2 1 1 2 4 5 4 6 6 2 7 13 18 17 10 6 4 4 7 9 11 11 5 3 8 5 9 13 11 11 10 9 11 13 17 19 20 18 16 16 17 17 16 16 16 15 14 14 13 12 12 10 9 8 8 7 6 5 5 4 3 3 2 2 2 1 1 1 1 0 0 0 1 1 1 2 2 3 3 3 4 4 4 5 5 6 6 6 7 7 7 7 8 8
4 2 2 2 2 1 4 3 4 4 6 7 5 9 15 17 14 10 8 5 6 7 10 12 9 6 4 6 7 9 12 11 11 11 12 13 14 17 18 19 18 16 16 17 17 16 16 15 14 14 14 13 12 11 10 9 8 7 7 6 5 4 4 3 3 2 2 2 2 2 2 2 1 1 1 1 1 2 2 3 3 3 4 5 5 6 6 7 7 7 7 8 8 8 8 8 9
2 2 1 2 2 2 4 4 4 5 6 3 4 9 14 15 12 9 9 6 8 9 11 12 6 8 6 3 7 8 9 9 10 10 12 15 16 18 18 19 18 17 17 17 16 15 15 14 14 14 13 12 11 10 10 9 8 8 7 6 6 5 4 4 3 3 3 3 3 3 2 2 2 2 1 1 2 2 2 3 3 3 4 4 5 6 6 7 8 8 9 9 9 10 10 10 10
0 1 2 2 2 4 5 4 5 6 6 3 2 7 10 12 9 7 9 8 10 11 14 15 6 8 6 3 7 9 11 10 10 10 11 15 17 18 19 19 19 19 18 17 16 15 14 14 14 12 12 11 11 11 10 10 9 9 8 7 6 5 5 4 4 4 4 4 3 3 3 3 2 2 2 2 2 3 3 3 4 4 4 4 5 5 6 6 7 8 9 9 10 11 11 12 12
2 0 4 1 4 3 3 4 6 6 5 3 3 5 8 9 7 8 10 9 13 11 11 17 9 7 6 3 8 13 14 13 12 12 13 15 17 19 19 19 20 20 19 18 17 16 15 14 13 12 12 12 11 11 11 11 10 9 8 8 7 6 5 5 5 5 5 5 4 4 4 3 3 3 4 4 4 5 5 5 6 6 7 7 7 8 8 8 9 9 9 10 10 10 11 12 13
2 2 3 2 2 1 3 3 5 4 4 4 3 6 8 6 6 9 8 6 13 12 8 15 13 7 6 4 8 16 16 14 16 15 15 16 18 19 20 20 21 21 20 19 18 16 16 15 14 14 13 13 12 12 11 10 10 9 8 7 6 6 6 6 6 6 6 5 5 5 4 4 4 4 5 5 6 7 8 8 9 10 10 11 11 11 12 12 12 12 12 12 12 12 12 12 12
4 4 2 1 3 3 3 3 5 5 5 5 5 7 7 5 5 9 8 5 10 13 7 12 17 7 6 9 10 15 14 14 17 17 17 18 19 20 21 21 22 22 21 20 19 18 17 16 16 15 15 14 13 12 11 11 10 9 8 7 6 6 6 6 6 7 6 5 5 4 4 4 4 5 6 6 7 8 9 10 10 11 12 13 13 14 14 14 14 14 14 14 14 13 13 13 12
4 3 2 1 3 2 3 3 3 4 5 4 7 6 4 5 6 7 8 6 6 11 11 14 19 11 7 12 11 11 11 13 15 17 19 19 21 22 22 23 23 23 23 22 21 20 19 18 18 17 16 15 13 13 12 11 11 9 8 7 6 6 6 6 6 6 5 5 4 3 4 3 4 4 5 6 7 8 9 10 11 12 13 13 14 14 15 15 15 14 14 14 14 14 14 13 13
3 0 2 2 3 2 4 3 1 3 5 4 6 7 3 4 7 7 8 9 7 10 14 13 18 18 13 12 12 10 11 12 14 17 20 21 22 23 24 24 25 25 25 24 23 22 21 20 20 19 17 16 15 14 13 12 11 10 9 8 7 7 7 7 7 6 5 4 2 2 2 1 2 4 5 6 7 8 9 9 10 11 12 12 13 14 14 14 14 14 14 14 14 13 13 13 13
2 2 2 3 3 4 5 4 3 2 3 3 6 9 7 3 6 8 7 9 11 10 14 14 14 18 18 17 16 15 14 14 16 17 19 21 22 23 23 24 26 27 27 27 26 25 23 23 22 21 20 18 16 15 14 14 12 11 10 9 8 8 8 8 7 6 5 3 2 2 1 2 3 4 5 6 7 7 8 8 9 9 10 11 12 13 13 14 14 14 14 14 14 14 13 13 13
5 3 2 4 5 5 5 4 5 1 2 4 4 7 9 6 6 7 5 7 10 9 12 15 15 18 20 22 21 20 19 19 20 20 20 21 22 22 22 23 25 27 27 27 27 26 26 25 24 24 22 19 18 17 16 15 14 13 11 10 10 9 10 9 9 7 6 5 4 4 4 4 4 5 5 6 6 6 7 7 8 8 9 10 11 12 13 14 14 14 14 14 14 14 14 14 13
7 5 1 7 7 6 10 8 4 2 3 3 2 5 8 8 7 7 6 6 7 10 14 14 18 24 24 24 23 23 24 24 24 24 25 24 24 23 23 24 24 25 25 25 26 27 27 27 27 26 24 22 21 20 18 17 16 15 13 12 11 11 11 11 10 9 7 6 6 6 5 6 6 5 6 6 6 7 7 7 8 8 9 9 9 10 11 12 13 13 14 14 14 14 14 13 13
6 7 4 7 4 4 12 11 6 6 5 5 5 4 6 9 9 9 7 4 5 14 22 21 23 28 27 27 26 26 26 26 27 28 28 28 27 26 25 25 23 23 24 26 27 28 28 28 28 28 26 24 23 22 20 19 18 17 15 14 13 13 12 12 12 10 9 8 8 7 7 7 7 6 6 6 6 7 7 8 8 8 8 9 9 10 10 11 11 12 13 13 13 13 13 13 13
4 8 12 13 8 5 13 13 9 9 7 6 6 4 7 7 9 14 12 7 11 19 21 20 21 24 26 28 28 29 29 29 30 30 31 31 30 29 28 26 25 25 26 28 28 27 28 28 29 29 28 27 25 24 22 21 20 19 17 16 15 15 14 14 13 13 11 10 10 9 9 8 8 7 7 7 7 7 8 8 9 9 9 10 10 10 10 10 11 12 13 14 14 14 14 14 14
6 8 13 18 17 10 15 16 12 12 9 7 6 6 8 6 9 16 18 21 27 26 19 13 13 14 21 27 29 30 30 30 31 30 30 29 29 29 28 27 27 27 28 28 28 28 29 29 30 30 30 29 27 26 24 23 22 21 20 19 18 17 16 16 16 15 14 13 12 11 11 10 10 9 8 8 8 8 9 9 9 10 10 10 10 10 11 11 12 13 14 15 15 16 15 15 15
11 7 8 15 18 16 20 20 15 14 12 13 10 8 10 9 9 11 21 34 35 31 26 21 17 14 16 22 29 32 31 31 31 29 28 27 27 26 25 26 26 28 29 29 29 30 30 30 30 30 31 30 29 29 27 26 24 23 22 21 20 19 18 18 17 17 16 15 14 13 12 12 11 10 10 9 9 9 10 10 10 10 10 10 10 10 11 11 12 13 14 15 15 16 16 16 15
10 8 8 11 14 17 19 18 16 16 16 17 12 11 15 17 13 11 28 40 35 31 30 28 25 23 21 22 26 30 32 33 32 31 30 29 28 27 27 27 28 29 31 30 30 30 30 30 30 31 31 31 31 31 29 28 27 26 25 24 22 21 21 20 20 19 18 17 16 15 14 13 13 12 11 10 10 10 10 10 10 10 10 10 11 11 11 11 12 12 13 14 15 15 16 15 14
8 10 10 9 12 16 18 19 19 17 18 15 9 13 19 20 13 15 37 43 34 32 31 30 28 26 29 28 28 29 31 33 33 33 33 32 31 31 31 31 32 32 32 31 31 31 30 30 31 31 31 32 33 33 32 30 29 28 27 26 24 23 22 21 22 21 20 19 18 17 16 15 14 13 12 12 11 11 11 10 10 10 10 10 11 11 11 11 11 12 12 13 14 14 15 15 14
5 8 11 13 16 18 20 22 24 19 17 16 11 11 16 15 6 12 37 33 21 23 24 27 28 28 31 31 32 32 33 34 35 35 34 34 34 35 35 34 35 35 33 33 33 32 32 32 31 31 31 33 34 34 34 32 31 29 27 27 26 25 24 23 24 23 22 20 19 19 18 17 16 15 13 13 12 12 12 11 10 10 10 11 11 12 11 11 11 12 12 13 14 14 15 15 15
7 9 12 17 15 18 22 22 25 17 13 19 16 9 13 9 5 19 40 29 14 16 16 19 24 29 31 32 34 34 36 37 35 36 37 38 37 38 38 38 38 37 36 36 34 34 33 33 32 32 31 32 35 36 35 34 32 30 29 28 27 26 25 25 25 24 23 22 21 20 19 18 17 16 15 14 13 13 12 11 11 10 10 11 11 12 12 12 12 12 13 13 14 15 15 15 16
10 6 6 14 9 12 23 21 22 15 8 15 11 4 11 7 13 33 44 35 25 22 20 21 22 26 29 32 35 36 37 37 36 38 38 39 38 38 39 38 38 38 38 36 35 35 34 34 33 33 32 32 34 36 36 35 34 32 30 29 28 27 26 26 26 25 24 23 23 22 21 20 18 17 16 15 14 14 13 12 11 11 11 11 12 12 12 12 12 12 12 13 14 15 15 16 16
9 3 2 9 6 8 19 16 16 13 8 12 12 1 11 9 21 36 36 34 31 26 26 29 27 27 28 30 34 36 37 37 38 38 37 37 36 37 38 38 38 38 38 37 37 36 35 35 34 34 33 32 33 35 37 37 35 34 32 31 30 29 28 27 27 26 26 25 24 23 22 21 20 19 17 16 16 15 14 13 12 11 11 12 12 13 13 12 12 12 12 13 14 15 16 17 17
4 2 1 4 3 7 12 7 5 5 6 16 14 3 12 12 20 26 22 24 26 25 29 31 31 32 31 32 33 35 37 38 39 38 37 37 36 37 37 38 38 38 39 39 38 37 36 36 35 35 34 32 32 34 36 37 37 36 34 33 32 30 30 29 28 27 27 27 26 25 24 23 21 20 19 18 17 16 15 13 13 12 12 12 12 13 13 13 12 12 12 13 14 16 16 17 18
1 1 4 3 4 7 11 8 8 7 6 15 13 4 11 13 22 27 22 22 23 24 29 30 31 34 34 35 35 36 37 38 40 40 41 40 37 37 37 38 39 39 39 39 39 38 38 38 36 36 35 33 33 33 35 37 38 37 36 35 33 32 31 30 30 29 29 29 28 27 26 24 23 22 20 19 18 17 16 15 14 13 13 13 13 13 13 13 13 12 13 13 14 16 17 17 18
1 4 6 5 5 5 7 8 8 10 6 9 10 6 7 9 15 21 17 19 23 22 26 30 32 34 34 36 37 37 37 38 40 43 44 42 40 38 37 38 39 39 39 39 40 40 40 39 37 37 36 34 33 33 35 37 38 38 37 36 35 34 33 32 31 30 30 30 30 29 27 26 25 23 22 20 19 18 17 17 16 15 14 14 13 13 13 13 13 13 13 14 15 16 17 18 18
4 3 5 6 7 5 5 7 3 8 8 8 11 9 11 11 11 14 12 14 17 20 25 30 33 35 35 35 37 38 40 41 43 46 45 43 41 39 38 37 38 39 39 39 40 40 40 39 38 37 36 35 34 34 34 36 38 38 38 37 36 36 35 34 33 32 31 31 31 30 29 27 26 25 23 22 21 20 19 19 18 16 15 14 13 13 13 14 14 13 13 14 15 17 18 19 19
5 5 4 5 7 6 9 8 2 7 7 7 8 9 16 17 14 21 27 22 15 18 24 28 32 34 35 36 37 39 42 44 48 49 45 42 41 39 38 37 38 39 39 40 40 41 41 40 39 38 37 36 35 35 34 35 37 39 39 39 38 38 37 36 35 34 33 32 32 31 30 29 27 26 24 23 22 21 21 20 19 17 15 15 14 14 14 14 14 14 14 14 16 17 18 19 20
8 8 6 6 7 7 11 10 6 9 6 6 10 12 16 18 16 20 32 31 22 21 24 27 30 33 35 37 39 41 43 47 51 49 44 41 40 38 37 37 37 39 39 40 41 41 42 42 41 39 38 37 37 36 36 37 39 40 41 41 41 40 39 38 37 36 35 34 33 33 32 30 29 27 26 25 24 23 22 21 19 18 16 15 14 14 14 14 14 14 14 14 15 16 17 19 21
9 9 8 9 8 10 12 11 7 8 6 7 13 15 15 18 18 17 26 27 20 20 22 26 31 33 37 38 41 44 46 50 51 47 44 40 38 37 36 37 37 38 39 40 42 42 43 43 42 40 39 38 39 39 38 38 40 41 42 43 42 41 40 40 39 38 37 35 35 34 33 32 30 29 28 26 25 24 24 22 20 19 17 16 14 14 14 14 15 15 15 14 15 16 17 19 21
11 10 9 9 8 12 13 10 7 6 5 8 11 14 16 17 17 16 19 15 15 21 20 24 31 34 37 39 43 47 48 50 48 45 43 38 35 35 35 37 37 39 40 41 42 43 43 42 41 40 39 40 40 40 39 38 38 39 39 39 39 40 40 40 40 39 38 36 36 36 35 33 32 31 29 28 27 26 25 23 22 20 18 16 15 14 14 15 15 15 15 16 15 16 16 18 21
10 8 7 8 6 10 11 8 6 4 5 7 8 11 13 14 16 15 14 12 18 30 27 28 33 31 33 38 43 47 46 46 44 42 40 36 34 34 34 37 38 38 39 40 42 42 42 42 41 41 41 41 41 40 39 38 37 37 37 37 37 38 39 39 39 39 38 37 38 37 36 35 33 32 31 30 29 28 26 25 23 21 19 17 15 15 15 15 16 16 16 16 16 17 17 18 20
8 8 7 8 7 7 9 6 3 3 4 5 6 9 9 9 12 13 17 21 24 32 34 35 37 34 37 43 47 48 45 43 42 39 36 33 32 33 35 37 37 38 39 41 42 42 42 42 42 42 42 42 41 40 38 37 37 37 37 38 38 38 38 38 39 39 39 39 39 38 37 36 35 34 32 31 30 29 28 26 24 22 19 18 16 16 16 16 16 17 17 17 17 17 17 18 19
10 10 8 10 10 11 12 7 4 3 4 4 4 9 8 8 14 14 16 20 21 27 31 33 39 41 43 46 48 50 49 45 41 37 33 31 32 34 35 36 36 38 40 41 42 42 41 41 41 42 42 41 40 39 38 38 38 38 39 40 40 40 40 40 41 42 43 42 41 40 39 38 36 35 34 33 32 30 29 27 25 22 20 19 18 17 16 16 17 17 17 18 18 18 18 18 19
11 8 11 14 14 13 13 9 6 5 6 4 2 7 8 8 14 15 10 9 11 16 20 24 34 41 41 43 46 48 48 44 39 35 32 31 33 33 34 35 36 38 39 39 39 39 39 39 40 40 40 40 39 38 38 38 38 39 40 41 42 43 44 45 45 45 45 43 42 41 40 39 38 37 36 34 33 32 30 28 26 23 22 20 19 18 17 16 17 17 18 18 18 19 19 19 19
10 6 11 14 12 11 11 7 4 3 5 4 3 3 8 5 8 10 7 7 10 11 11 16 25 32 36 40 43 44 42 38 33 31 30 31 32 33 34 35 36 37 36 36 37 37 38 38 38 38 39 39 38 38 38 38 38 39 39 40 41 42 44 44 44 44 44 42 42 41 40 40 39 38 37 35 34 33 31 29 27 25 23 22 20 19 17 17 17 18 18 18 19 20 20 21 21
7 4 8 10 9 9 8 6 5 4 4 4 2 3 7 11 7 9 11 11 12 12 11 12 18 27 35 40 40 40 39 34 28 27 28 29 32 33 33 33 34 34 33 34 36 37 38 37 37 37 37 37 37 37 37 37 37 36 37 38 39 41 43 43 43 43 42 42 42 41 41 40 40 39 38 36 35 33 32 30 28 26 25 23 21 19 18 18 18 18 19 19 19 20 21 22 22
6 2 4 5 5 5 3 3 5 2 4 4 4 5 4 14 8 8 11 11 11 13 14 13 15 25 36 40 39 38 38 33 27 26 26 26 29 30 30 30 30 31 32 33 34 34 36 36 36 37 37 36 36 36 37 37 36 34 34 36 37 39 41 43 43 43 43 43 43 42 42 41 40 39 38 37 36 34 33 31 29 27 26 24 22 20 19 19 19 19 19 19 19 20 21 22 23
3 4 3 4 3 2 4 1 1 2 4 6 7 7 3 14 11 5 5 7 10 11 12 13 15 25 36 38 37 37 36 33 29 27 26 24 24 25 26 27 28 29 30 31 32 33 35 35 36 36 36 36 35 35 36 37 36 35 33 33 34 36 40 42 43 44 44 44 44 43 43 42 41 40 39 38 37 35 34 32 31 29 27 25 23 21 20 20 19 20 20 20 20 20 21 22 23
2 5 4 6 5 5 4 1 4 2 8 6 10 12 8 10 9 4 5 5 11 10 8 10 12 21 32 36 36 35 34 33 31 28 25 23 22 23 25 26 27 28 29 31 32 34 35 35 36 36 36 36 35 34 35 35 36 35 32 31 32 33 37 41 42 44 45 45 45 45 44 43 42 41 40 39 38 36 35 33 31 29 27 26 24 22 21 21 21 21 21 20 20 21 22 23 24
3 4 4 4 5 4 5 4 4 2 9 6 13 15 12 10 6 2 2 3 9 10 9 10 10 16 29 35 35 32 31 32 31 27 24 23 23 25 26 27 27 27 29 31 33 34 35 35 36 36 36 36 35 35 35 36 37 35 31 31 32 32 34 38 41 43 44 45 46 46 45 44 43 42 41 40 39 37 36 34 32 31 29 27 25 23 22 22 22 21 21 21 21 22 23 23 24
4 4 4 1 4 3 3 3 0 4 8 6 10 10 8 13 7 3 7 5 6 9 9 13 14 17 28 33 31 30 30 31 30 27 24 24 24 25 25 26 27 28 30 31 32 33 34 35 36 36 36 35 35 35 35 36 37 35 32 31 32 33 33 35 39 42 43 44 45 46 46 46 45 44 43 42 40 38 37 35 33 31 29 27 25 24 23 23 23 22 22 22 23 23 23 24 25
7 5 6 5 3 1 3 4 3 5 8 6 6 6 5 8 4 8 14 13 13 14 16 23 23 23 31 32 28 29 29 28 27 27 26 25 24 23 23 24 26 28 29 30 31 32 33 34 36 36 35 35 36 36 36 37 37 35 35 33 33 34 34 34 37 40 41 43 45 46 46 46 46 45 44 42 40 38 37 35 33 31 29 27 26 25 24 24 23 23 23 23 24 24 24 24 26
7 6 6 4 4 4 4 5 6 6 7 6 3 4 4 3 3 9 12 13 15 18 24 30 30 31 32 31 30 29 26 23 26 28 28 26 23 22 22 23 26 27 28 30 30 31 32 33 34 35 35 36 37 37 37 37 36 36 37 37 36 36 35 35 37 39 41 42 43 45 46 46 45 44 43 40 38 38 37 35 33 32 30 28 27 26 25 25 24 24 24 24 24 24 24 25 27
3 5 5 3 5 6 5 5 5 2 4 6 3 4 6 4 6 8 7 9 9 13 21 22 25 31 30 30 35 30 22 21 25 28 28 27 23 22 22 23 25 26 27 29 30 30 31 31 33 35 35 36 37 37 37 36 37 38 38 39 39 38 38 39 38 39 40 41 42 44 44 44 44 42 41 39 37 37 36 35 34 33 31 29 28 27 26 25 25 25 25 25 25 25 25 26 28
2 4 4 5 4 6 4 6 3 1 5 8 3 5 6 5 7 8 7 10 8 9 13 12 19 29 27 28 35 29 20 21 25 27 28 27 25 22 21 22 24 25 25 28 29 29 28 30 33 35 36 38 38 37 37 37 38 39 39 40 41 40 40 40 39 38 39 40 42 43 43 43 42 41 40 38 37 37 36 35 35 33 31 30 28 27 27 26 26 25 25 25 25 26 27 27 28
5 3 6 3 3 2 3 1 3 2 6 7 5 8 8 7 8 4 1 5 8 9 10 10 17 24 22 28 34 28 23 23 24 26 27 26 25 22 20 21 23 22 22 26 28 28 27 30 34 36 37 38 37 36 37 38 39 39 39 41 43 42 41 41 40 40 40 41 41 42 43 43 42 41 40 39 38 38 37 36 35 34 32 30 29 28 28 27 26 26 26 26 26 27 28 28 29
5 3 2 3 1 2 2 3 3 5 8 8 11 14 10 7 8 6 4 7 10 12 13 13 15 15 17 26 31 26 23 24 24 26 27 27 25 22 20 21 22 20 23 26 26 26 28 31 35 37 37 37 37 37 38 39 39 38 40 43 44 44 43 43 43 42 41 41 42 42 43 43 42 41 41 41 40 39 38 37 35 34 33 31 30 29 28 28 27 27 27 27 27 27 28 28 28
2 2 3 1 3 4 3 3 3 4 8 9 12 14 11 7 6 6 9 10 11 12 12 12 12 14 20 27 27 25 23 25 28 29 29 29 27 23 22 22 20 20 23 25 24 24 26 32 37 39 39 38 38 39 39 40 39 38 41 44 45 46 45 45 44 43 42 42 41 42 42 42 42 42 42 42 41 40 38 37 35 35 34 32 31 30 29 28 28 28 28 28 28 28 29 29 28
1 1 3 2 2 1 1 2 2 4 8 7 8 11 11 7 3 5 9 8 9 11 11 10 10 16 25 29 31 33 31 31 32 31 30 30 28 24 22 21 20 21 24 25 25 23 26 33 38 40 41 41 40 40 40 40 40 39 42 45 45 47 47 47 46 44 43 42 42 42 42 42 42 42 42 42 42 40 38 37 36 35 34 33 31 30 29 29 29 29 28 28 28 29 29 29 29
7 6 6 5 6 3 5 7 5 4 6 6 8 9 11 8 1 3 7 6 7 9 9 10 11 18 27 32 37 40 39 38 35 31 30 27 24 23 22 21 21 23 26 28 26 25 28 33 36 39 42 43 42 41 40 40 40 40 43 46 47 48 49 49 47 45 44 42 43 43 43 42 42 42 42 42 41 40 39 37 37 36 35 33 32 31 30 30 30 29 29 29 29 29 29 29 29
Wind_Direction
226 221 214 194 225 215 115 20 352 304 68 272 272 244 263 251 191 74 90 104 96 61 83 96 74 86 90 103 128 115 87 130 164 129 173 198 167 174 171 173 178 176 186 190 192 196 198 200 200 201 195 192 188 184 186 193 204 210 208 212 219 223 231 246 257 264 267 269 270 277 283 289 295 299 303 305 309 312 313 312 314 316 314 311 309 310 311 314 315 315 312 316 323 323 326 328 329
203 204 195 173 170 151 25 58 76 330 37 300 282 211 242 326 41 52 172 156 132 135 117 105 91 91 91 111 126 104 62 91 144 147 151 157 164 173 174 176 180 183 189 191 194 198 202 205 206 210 210 211 211 204 201 205 212 217 221 220 223 228 232 240 248 253 258 262 265 268 273 279 284 288 291 294 298 299 301 302 302 303 302 300 299 299 298 299 301 303 303 307 311 312 315 316 318
169 186 189 161 129 75 344 65 117 18 49 269 276 257 243 60 92 147 120 124 127 135 133 124 109 99 93 110 118 89 137 128 147 160 154 159 167 173 176 179 182 189 194 190 189 195 201 205 208 211 215 219 217 213 209 211 214 217 222 222 224 228 232 235 238 243 248 253 258 261 263 268 271 276 280 284 288 290 293 294 296 296 296 296 295 296 294 294 295 296 298 301 304 305 306 307 308
154 174 183 143 106 52 30 82 160 156 226 240 261 286 221 132 167 148 110 120 128 135 140 129 106 103 91 111 117 109 155 160 163 162 160 158 168 177 175 178 186 193 198 190 185 192 198 202 206 206 208 211 210 210 207 208 210 212 213 213 215 217 223 227 230 235 239 245 248 252 256 260 264 268 274 278 283 287 290 292 295 296 297 298 297 296 295 295 295 297 298 300 303 303 303 303 304
148 158 166 133 99 61 84 104 169 151 230 207 244 285 202 155 164 157 127 130 142 138 137 140 127 133 125 143 155 158 162 170 168 162 164 159 169 180 178 181 190 197 199 194 190 194 200 202 203 205 205 204 203 201 199 199 198 200 199 196 195 195 199 201 207 213 218 228 233 241 248 254 262 267 275 281 285 288 292 293 294 294 295 296 297 298 296 296 295 296 297 300 302 302 303 302 303
150 149 154 128 95 125 101 274 275 261 242 192 249 260 182 174 160 148 131 131 145 139 141 150 146 136 134 173 187 190 167 171 163 156 172 172 174 182 184 186 194 201 199 193 193 198 203 206 207 206 204 199 195 190 187 186 184 183 179 175 172 171 172 172 175 176 183 188 200 215 228 245 259 270 281 283 286 285 285 285 285 286 288 289 291 294 295 296 295 294 294 293 294 295 296 297 298
153 143 143 121 94 116 113 225 242 252 250 195 207 215 183 181 156 140 135 135 143 152 151 154 148 133 136 185 185 193 185 193 171 147 170 181 182 186 188 192 199 203 194 188 194 201 203 206 205 200 196 190 184 180 176 172 169 164 159 156 153 155 154 155 156 157 165 168 187 209 228 252 263 272 282 285 290 288 290 294 294 297 296 297 299 302 304 305 306 305 304 300 298 296 294 293 292
144 124 119 106 53 32 130 229 242 219 255 241 182 186 184 171 157 146 157 169 166 181 163 159 163 149 215 185 176 198 200 208 200 193 185 186 192 190 193 198 204 203 189 187 197 202 202 201 197 191 185 181 177 173 167 162 157 153 150 148 147 148 149 148 149 151 155 163 181 200 221 243 264 278 294 305 319 327 333 339 341 343 340 337 334 333 332 331 332 330 330 327 323 319 314 308 303
133 105 115 103 74 333 260 257 258 232 255 263 208 182 178 168 163 153 161 178 164 184 177 169 174 173 194 186 196 204 205 214 209 213 203 197 199 196 201 204 208 205 191 192 200 200 198 196 190 184 179 177 174 168 162 157 153 151 149 149 151 148 148 144 144 144 144 148 149 149 146 135 116 75 37 21 9 4 4 358 1 358 355 356 353 352 351 350 347 346 346 344 343 340 336 330 326
130 126 138 87 111 279 287 267 251 264 256 232 207 185 173 168 168 160 157 168 169 174 183 179 184 190 170 185 207 210 212 218 212 210 204 199 199 201 205 207 208 204 198 199 200 199 196 193 188 181 178 175 170 164 160 158 156 155 155 154 153 149 149 145 142 141 141 140 133 133 124 117 105 92 64 44 29 10 7 360 358 355 354 353 352 353 351 352 350 349 349 348 348 345 343 340 338
118 193 160 73 101 246 257 258 258 270 275 247 212 188 173 170 165 166 159 156 176 165 172 175 193 203 182 206 214 218 218 215 216 212 204 200 200 204 208 210 209 200 202 206 204 203 199 194 189 182 178 175 170 169 166 165 164 161 160 156 155 151 150 149 148 144 140 137 133 130 122 121 108 98 79 58 42 24 18 6 2 357 355 350 348 347 346 348 347 347 346 347 347 346 345 342 342
40 258 99 105 179 209 219 252 269 272 290 311 246 195 173 172 163 175 170 163 174 160 174 181 190 196 186 249 220 221 220 211 212 210 208 204 204 209 214 216 212 204 204 210 211 209 205 199 193 187 183 182 180 179 175 171 167 165 162 159 156 154 154 153 149 147 144 141 137 133 128 122 109 99 83 67 56 44 35 23 18 10 4 358 353 351 348 348 346 346 345 346 347 346 346 344 344
257 286 92 154 203 199 238 265 271 289 301 273 229 191 173 182 187 199 185 173 170 161 190 194 186 180 192 237 219 223 220 216 211 208 211 210 212 215 218 219 215 211 209 214 215 212 211 206 199 196 193 193 190 184 180 175 169 166 163 161 158 157 157 155 153 151 148 145 142 136 127 116 102 88 73 62 52 43 37 29 23 16 11 8 3 0 357 355 352 350 347 346 346 346 345 344 344
265 313 104 223 262 221 249 265 278 288 284 258 201 173 179 199 215 209 191 175 182 185 209 205 193 184 204 203 222 226 216 216 214 209 211 212 217 219 220 220 217 216 215 217 217 216 215 211 207 204 200 197 193 187 183 179 172 169 165 163 161 161 159 157 157 153 152 148 143 135 121 105 87 72 60 49 42 35 29 24 19 14 10 7 3 360 357 354 352 349 347 345 344 344 343 343 342
281 316 87 190 317 309 243 228 260 254 257 244 179 172 188 215 223 216 213 205 201 200 197 197 195 191 205 197 229 235 216 218 216 209 210 213 216 218 221 220 219 219 219 219 218 220 217 214 212 208 204 199 196 190 187 184 178 173 170 169 166 166 165 163 162 157 156 148 141 130 110 91 71 57 46 37 31 26 21 18 13 9 5 3 359 356 353 350 348 345 343 341 339 338 337 337 336
288 309 63 7 278 280 250 227 254 240 254 232 178 182 204 228 216 214 230 225 207 198 188 188 196 206 214 206 231 242 220 218 214 209 209 213 216 216 220 220 220 221 222 222 220 222 219 216 215 212 208 201 198 195 192 188 182 179 175 176 175 174 174 172 171 166 162 153 146 117 94 76 58 41 31 24 18 15 12 11 8 5 3 360 357 353 350 346 343 341 338 336 334 332 331 330 328
275 17 86 301 245 229 242 232 273 215 248 251 191 197 200 241 221 216 236 232 220 200 198 200 204 215 227 227 235 235 222 215 206 206 209 212 216 216 219 220 220 221 224 225 223 224 221 218 217 215 211 203 201 198 197 194 188 185 181 182 183 183 185 183 183 180 178 172 153 114 103 68 31 15 9 6 4 5 5 6 5 3 1 356 354 349 346 343 339 337 334 332 330 329 328 327 325
195 111 152 245 230 210 211 212 243 195 222 236 208 209 201 235 229 218 240 237 233 222 216 218 216 221 232 239 240 237 229 221 214 212 213 213 217 219 220 221 222 223 226 227 227 227 224 222 220 218 215 207 204 203 201 198 194 191 188 189 190 192 193 192 195 195 201 205 193 187 228 304 339 350 355 356 358 0 359 359 357 356 355 352 349 345 344 341 338 336 334 331 329 327 326 325 323
189 154 167 234 214 220 249 258 249 224 222 216 221 222 213 241 236 210 234 241 229 231 232 226 226 227 232 238 238 239 235 231 230 227 225 225 227 229 226 225 224 225 229 230 231 232 228 224 223 222 219 211 209 208 205 203 200 197 195 196 196 199 201 202 205 208 214 220 227 245 274 302 317 328 336 340 341 343 342 341 342 343 345 345 344 344 343 341 338 335 332 329 326 325 323 323 322
206 191 208 243 226 251 281 293 274 266 261 240 305 250 223 242 233 200 218 251 231 225 233 221 222 230 231 235 235 235 236 235 236 236 236 238 239 239 236 234 232 232 234 236 235 234 232 228 226 225 222 215 212 212 209 207 204 201 201 201 204 205 208 211 215 221 224 230 245 260 279 289 296 304 310 315 318 320 322 323 325 329 333 338 340 340 338 337 336 332 329 325 322 320 319 319 320
197 181 204 239 232 278 279 293 296 277 287 280 289 281 260 252 232 217 213 253 255 235 240 233 234 239 232 231 234 235 237 236 237 239 240 241 242 243 243 243 244 243 239 237 236 235 235 233 230 228 226 220 216 217 214 210 207 205 204 204 207 209 213 218 222 229 232 240 250 261 272 275 280 285 289 296 300 303 306 309 312 318 321 324 326 325 326 329 330 331 328 324 321 319 318 318 319
208 215 225 241 252 282 278 286 285 272 283 280 277 275 273 260 235 233 215 215 247 248 253 252 252 253 243 239 239 238 238 239 239 241 243 245 246 247 247 246 243 240 237 236 238 238 237 235 233 231 229 224 220 220 217 214 211 208 207 207 210 212 215 221 225 231 234 241 248 256 263 266 271 273 277 281 286 292 295 299 302 306 307 307 311 314 318 323 328 330 329 327 325 323 323 323 323
223 252 236 245 250 256 274 279 276 272 269 264 267 262 265 263 254 247 227 233 250 256 260 261 264 265 255 249 242 238 239 241 244 246 248 249 249 249 250 248 245 242 241 240 239 238 237 236 235 232 230 227 223 222 219 217 215 212 210 210 212 215 217 222 226 230 233 238 244 249 254 259 263 267 272 276 281 286 289 292 293 295 297 299 304 310 316 322 327 331 331 329 328 326 326 326 327
214 259 254 256 257 259 274 280 275 267 264 264 265 265 265 250 256 260 245 249 255 259 258 255 259 266 260 248 241 242 244 246 250 252 254 254 254 254 254 253 251 248 245 243 240 238 237 236 235 234 232 229 225 224 223 220 218 215 213 212 213 216 218 223 226 229 232 235 239 244 249 253 257 263 268 272 278 282 285 287 288 291 293 297 303 309 315 321 327 330 330 328 327 326 323 324 325
213 248 265 269 271 272 280 288 280 269 268 270 264 259 257 251 259 270 260 261 261 259 260 257 255 257 256 249 244 244 245 248 251 252 252 253 253 251 250 249 248 246 245 245 243 241 240 238 236 235 233 230 227 226 225 223 220 218 216 215 214 216 218 221 225 228 232 234 238 241 245 249 253 259 263 269 275 279 282 283 286 290 293 298 304 309 314 319 324 326 326 326 324 321 319 318 320
218 238 267 287 287 284 287 289 284 276 267 263 253 256 258 259 270 273 264 265 268 264 261 260 255 250 250 249 247 246 246 248 249 250 251 251 249 246 246 245 244 246 248 246 245 245 242 239 237 236 234 231 229 228 227 225 223 222 220 219 217 218 220 221 225 228 231 234 237 241 244 247 250 253 259 266 272 277 280 282 285 289 294 298 304 308 311 314 318 320 321 321 319 317 315 315 316
248 271 292 291 289 293 289 284 282 278 268 252 232 253 265 262 257 265 267 269 271 266 260 258 254 249 247 245 247 248 249 251 252 252 251 248 245 247 247 245 245 247 247 246 246 246 243 242 239 236 234 232 230 229 229 227 226 225 223 222 220 220 221 223 226 229 231 233 236 239 242 244 247 251 255 262 268 274 278 280 284 288 293 297 303 306 307 309 312 315 317 318 317 317 317 318 319
293 316 314 290 294 302 287 279 277 273 268 248 225 252 277 262 206 246 262 266 265 264 261 257 249 248 248 245 247 248 250 253 254 252 249 249 249 250 250 248 248 247 246 247 247 246 244 244 242 239 235 231 230 229 229 229 228 227 225 223 223 223 223 226 228 229 232 233 236 238 241 243 246 249 253 259 265 270 275 277 280 285 289 294 300 302 302 304 308 313 316 319 319 319 320 321 322
301 319 314 289 315 306 278 274 270 255 253 240 202 281 281 234 224 245 258 263 260 261 261 258 251 248 247 246 247 248 251 253 250 250 251 254 255 254 254 254 252 249 249 249 247 246 246 246 244 242 237 233 231 230 229 230 230 229 227 226 226 225 225 228 230 231 232 234 236 238 240 243 245 248 251 256 261 266 271 274 277 280 285 291 296 298 298 299 304 311 314 318 319 319 320 321 322
295 289 240 285 334 300 270 269 259 241 234 207 157 280 271 243 242 248 262 266 260 257 255 255 252 250 248 247 247 248 251 251 249 252 254 255 256 256 257 256 253 251 250 247 245 246 245 245 244 243 240 236 232 230 229 229 230 230 228 228 227 228 228 229 231 232 234 235 237 238 240 243 244 247 250 254 259 263 267 270 273 275 280 287 292 294 294 295 301 307 312 317 318 320 321 321 321
275 298 243 265 299 278 270 264 212 214 216 181 156 239 258 263 262 257 265 262 255 250 251 253 249 249 249 248 248 249 251 251 252 256 256 255 256 257 258 257 253 250 248 246 246 246 244 243 243 243 242 239 234 231 230 229 231 231 230 230 229 230 230 231 233 233 235 236 237 239 240 242 243 246 249 252 256 259 263 266 268 271 276 282 288 291 291 293 298 304 311 315 319 322 321 321 323
206 245 281 261 212 259 281 272 201 205 208 168 156 236 256 263 270 270 267 256 248 241 248 254 250 249 247 248 249 249 254 255 256 257 256 255 254 255 257 257 254 250 248 247 245 243 242 242 243 243 243 240 237 233 230 230 231 231 231 231 231 232 233 233 234 234 235 236 237 239 240 241 243 245 247 250 253 256 260 263 265 268 272 278 284 288 289 291 295 302 309 315 319 321 320 322 324
293 197 248 258 228 258 290 287 228 196 173 172 188 225 257 261 270 273 266 253 247 234 243 252 252 252 247 247 248 248 255 257 258 259 256 253 253 254 255 256 256 252 250 247 244 242 241 241 240 242 243 242 239 235 231 230 230 231 232 232 232 233 234 235 235 235 236 237 238 239 240 241 242 244 245 248 251 254 258 261 263 265 269 275 280 284 287 289 294 300 307 314 318 320 321 322 323
286 219 235 251 241 253 266 293 284 164 155 201 219 230 251 256 269 274 263 258 249 228 236 246 249 253 249 248 248 249 254 256 261 263 260 257 255 254 254 255 255 252 249 246 244 243 242 241 240 241 242 241 240 236 233 231 230 231 232 233 233 234 235 236 237 236 237 238 239 240 240 241 242 242 243 246 249 252 256 258 259 261 265 272 277 283 286 288 294 299 307 314 317 319 321 321 322
231 222 226 252 247 248 252 267 229 158 174 208 218 238 251 257 266 268 264 264 253 232 235 243 248 252 253 252 250 253 256 258 265 267 264 261 258 255 253 253 252 250 248 245 243 241 240 240 239 240 240 240 239 237 234 231 230 230 231 231 231 233 234 236 237 237 238 238 239 240 240 240 241 242 243 245 247 250 253 254 255 258 262 269 276 282 286 289 293 298 305 311 314 317 320 319 319
224 235 232 243 249 253 254 260 218 175 195 210 215 234 243 252 256 257 261 261 256 247 241 243 247 251 255 255 254 256 256 261 268 269 265 264 261 257 253 250 249 248 246 244 241 238 237 236 236 237 238 239 237 234 232 229 228 228 229 230 230 232 234 236 238 238 238 239 239 240 240 240 240 240 242 243 246 248 250 251 253 256 260 267 274 280 285 289 292 296 300 305 310 314 316 316 317
244 254 255 251 253 262 259 265 245 183 192 217 218 234 239 247 252 248 255 260 261 252 243 244 247 249 252 254 256 258 258 263 269 269 266 265 262 257 252 247 245 243 241 240 239 237 236 235 235 235 236 237 237 234 232 230 229 229 229 231 232 234 235 237 238 239 239 240 240 240 239 239 240 240 241 243 245 246 248 250 251 254 258 263 270 277 283 287 289 293 296 300 305 309 313 316 319
249 250 259 260 251 263 259 258 257 188 196 241 229 243 249 246 254 254 251 253 255 251 244 245 247 249 252 255 258 260 261 264 267 267 266 264 260 254 248 243 240 239 238 237 237 236 235 235 236 237 236 237 237 237 236 235 235 235 235 236 237 237 239 240 242 242 242 242 241 240 239 239 239 240 241 243 244 246 247 248 249 251 254 260 267 275 281 284 287 290 292 297 301 306 311 316 321
243 246 256 263 252 272 266 247 256 192 192 248 242 247 253 251 255 258 251 238 244 250 248 249 251 251 254 257 260 261 263 264 264 264 264 262 258 251 243 240 238 238 238 238 237 235 234 235 235 236 236 237 238 238 238 239 239 239 240 241 241 241 241 243 244 244 244 243 242 241 240 239 239 240 241 242 243 245 246 246 247 249 252 258 265 272 277 281 284 287 290 293 298 304 310 315 322
239 242 249 259 251 269 268 245 252 224 208 249 260 259 256 260 266 261 251 244 244 250 252 254 256 256 256 259 261 263 263 263 263 262 260 258 252 245 239 238 236 235 235 235 234 234 234 235 235 235 235 237 237 238 239 239 239 239 239 240 240 241 243 243 242 242 241 241 240 240 240 240 239 240 240 241 242 243 245 245 246 248 251 256 262 268 273 277 282 285 288 292 296 301 307 313 320
244 231 228 249 249 246 253 267 298 288 280 279 284 287 270 231 249 257 250 247 247 250 253 256 257 257 258 259 261 262 262 262 261 260 256 252 247 242 238 236 234 232 233 234 234 234 235 235 235 235 236 237 237 238 238 237 236 235 235 235 235 236 237 238 237 237 237 237 239 240 240 240 238 239 239 240 241 243 244 245 246 247 250 254 259 264 269 273 279 282 286 291 294 298 303 309 315
258 224 211 235 244 245 253 278 317 317 296 275 201 282 277 201 222 247 251 251 249 244 246 249 253 255 257 258 259 261 262 261 260 258 254 251 246 240 235 234 233 233 234 235 236 236 237 236 235 235 236 236 237 237 237 236 235 234 234 233 233 233 234 235 237 238 239 240 241 241 240 240 238 238 238 239 241 242 243 244 245 247 249 252 256 260 265 270 276 280 284 289 292 296 300 305 310
269 228 207 225 236 248 257 267 284 263 263 271 130 228 277 245 213 236 239 240 249 245 238 242 247 251 254 256 257 260 262 262 260 257 252 248 243 236 233 233 234 235 236 235 236 236 236 236 235 235 236 236 236 236 235 235 235 235 236 238 239 240 241 243 244 244 244 245 245 244 242 241 239 238 238 239 240 241 242 243 244 246 247 250 253 257 262 267 273 278 282 286 289 293 298 302 307
266 233 195 211 226 242 246 232 226 234 266 289 122 137 282 280 232 207 214 221 241 249 245 246 244 246 252 253 254 259 263 265 263 255 246 242 240 236 236 237 237 237 235 233 233 233 233 234 234 234 235 236 235 235 235 235 235 235 237 239 242 245 247 249 249 247 247 247 246 245 243 242 240 239 238 238 239 241 241 242 243 244 246 248 251 255 260 265 270 275 278 281 285 289 295 300 305
251 190 167 179 200 218 184 191 225 280 336 281 196 135 279 280 247 188 208 215 229 244 242 244 239 240 248 250 251 258 265 267 264 253 245 242 240 239 240 240 240 238 234 232 232 232 232 232 233 233 233 234 234 235 235 235 235 236 238 241 243 247 248 248 248 248 247 247 246 245 243 241 240 238 237 238 238 240 240 241 241 242 244 247 251 254 258 263 267 271 274 277 281 286 291 297 302
229 118 91 73 70 53 81 140 167 41 309 251 193 154 210 276 270 179 176 202 215 232 236 238 234 234 242 246 250 258 264 265 261 252 247 243 241 240 240 240 238 236 233 232 231 231 231 230 230 231 230 231 232 233 235 235 234 235 237 241 244 247 247 246 246 245 245 245 245 244 243 241 239 237 236 236 237 238 238 239 240 241 244 247 250 253 257 261 264 268 271 274 278 283 288 294 298
115 93 55 30 13 22 47 14 73 50 276 230 182 179 186 269 286 157 159 199 200 209 224 240 242 236 239 244 250 257 260 262 259 252 243 235 235 237 237 238 236 233 231 229 229 229 229 229 229 229 229 229 230 232 234 234 232 232 235 240 243 246 248 247 246 245 244 244 243 243 242 240 239 237 236 236 237 237 237 239 240 241 243 246 249 253 255 259 262 265 269 273 277 281 284 289 294
94 92 76 24 329 8 25 355 58 222 264 214 182 187 187 234 274 136 219 232 191 201 209 223 237 237 239 242 247 254 256 257 257 251 237 222 222 228 230 233 232 229 227 225 226 226 226 227 228 228 228 228 229 231 233 233 231 230 232 238 242 244 248 250 249 248 247 246 245 243 242 240 238 236 235 235 236 237 237 238 239 241 243 246 249 251 254 257 261 264 268 271 274 278 281 286 291
108 106 108 58 298 342 356 306 205 224 253 229 194 186 202 239 253 234 270 277 207 207 205 214 222 231 238 237 240 253 256 253 252 247 234 217 217 223 224 228 227 224 223 222 222 224 224 225 226 227 226 226 228 229 231 232 231 228 228 234 239 241 245 251 252 251 249 249 247 245 243 241 239 237 236 236 237 238 238 239 240 242 244 246 248 250 253 256 260 263 266 269 272 275 279 286 291
167 148 148 178 212 245 267 254 263 262 263 253 202 178 239 275 274 220 234 241 224 210 210 220 221 228 237 231 233 255 258 249 246 243 233 222 221 226 226 228 226 222 221 220 221 223 223 224 225 225 225 226 228 229 230 232 231 228 228 231 236 239 242 248 252 252 250 249 248 247 247 246 244 243 241 241 240 240 240 240 241 242 243 244 246 249 253 256 259 261 265 267 270 274 279 286 292
181 152 143 177 176 185 225 241 256 276 287 275 189 163 223 274 269 217 218 237 234 217 217 222 223 230 238 229 230 252 256 245 241 237 233 229 229 231 230 230 228 224 222 221 222 224 224 226 227 226 225 226 228 229 231 232 231 229 229 231 234 239 242 245 249 251 251 250 250 249 248 248 247 247 245 244 243 241 241 240 240 240 241 244 246 249 251 254 257 259 263 266 269 275 280 284 289
213 124 118 210 198 194 232 265 249 244 310 285 207 202 233 234 259 244 235 260 252 222 221 223 225 232 237 232 233 244 249 239 233 229 229 231 229 230 231 231 230 226 224 225 226 226 227 231 232 230 229 228 229 231 232 234 234 232 232 232 233 237 241 243 246 249 251 251 250 250 249 249 248 247 245 244 242 240 240 239 239 240 241 243 245 248 250 253 256 259 262 266 270 274 279 283 287
189 121 180 213 167 166 222 286 303 93 275 275 222 234 279 307 278 251 234 248 246 230 227 223 227 231 233 234 235 239 238 231 228 227 230 231 228 229 232 232 228 224 226 230 230 230 233 238 238 235 233 232 232 233 236 237 236 236 236 234 234 236 240 243 246 248 250 250 249 249 249 248 247 246 244 242 240 238 238 238 239 239 240 242 245 247 250 253 256 260 263 266 270 273 278 282 286
129 174 220 204 77 107 159 235 326 312 259 269 262 260 280 297 281 292 349 260 250 244 236 223 228 229 229 234 235 234 230 228 228 228 230 231 229 230 235 235 228 226 234 237 236 236 239 245 244 239 236 235 235 236 238 239 239 240 241 239 236 236 239 243 246 247 248 248 248 248 247 246 245 244 242 240 238 237 237 237 238 239 240 242 245 247 250 253 256 260 263 265 269 273 277 282 285
135 204 233 107 147 238 157 166 231 252 252 268 277 277 275 255 260 287 282 244 232 231 230 227 230 230 231 235 236 233 226 225 228 229 231 232 230 233 241 238 228 232 242 241 239 241 247 252 250 243 240 240 239 239 240 242 242 244 246 244 241 239 239 242 245 246 247 247 248 248 246 245 243 242 240 239 238 237 237 237 237 239 240 242 245 247 250 254 257 259 262 264 269 273 277 282 285
69 5 341 35 179 187 183 178 168 227 249 265 276 284 280 246 237 259 246 230 222 222 225 229 229 232 235 235 236 238 232 231 234 235 237 236 234 240 247 242 237 246 250 241 237 247 261 265 256 247 244 242 241 241 242 244 245 246 248 247 245 242 240 241 244 245 247 248 248 248 246 245 243 241 240 238 238 237 237 238 238 239 241 242 245 248 251 254 256 258 260 264 269 273 277 282 285
186 233 262 273 237 181 251 242 161 220 244 253 260 271 276 260 219 240 243 231 224 216 216 229 228 231 239 237 235 237 238 240 242 241 243 242 242 246 245 240 244 253 249 238 238 254 270 270 261 254 249 244 243 243 244 247 247 248 250 248 247 245 242 241 242 245 247 248 248 248 246 245 243 241 240 239 238 237 237 238 238 239 241 243 245 248 251 253 255 257 261 264 268 273 278 282 284
178 195 207 210 218 232 270 255 219 218 238 242 249 257 267 270 221 228 241 228 227 215 209 228 224 227 239 239 235 234 234 237 241 243 246 247 248 248 242 241 250 254 244 235 241 258 271 272 269 261 253 248 248 247 248 250 251 252 254 250 246 246 244 242 242 244 247 248 248 247 245 243 241 240 240 239 238 237 237 237 238 239 241 243 245 248 250 252 255 258 261 264 268 273 278 281 283